GW7231 Weather Reports


time (UTC)temp
C
wind
direction
speed
KPH
gust
KPH
rain 1hr
cm
rain 24hr
cm
rain mn
cm
humidity
%
barometer
mb
20260507045803 12 188 0.0 0.0 0.00 0.00 0.00 82 1022.1
20260507045259 12 188 0.0 0.0 0.00 0.00 0.00 82 1022.2
20260507044757 12 188 0.0 0.0 0.00 0.00 0.00 82 1022.0
20260507044253 12 188 0.0 0.0 0.00 0.00 0.00 81 1022.1
20260507043749 12 188 0.0 0.0 0.00 0.00 0.00 82 1022.0
20260507043246 12 188 0.0 0.0 0.00 0.00 0.00 81 1021.7
20260507042743 12 188 0.0 0.0 0.00 0.00 0.00 82 1022.0
20260507042237 12 188 1.6 1.6 0.00 0.00 0.00 82 1021.9
20260507041736 12 188 0.0 0.0 0.00 0.00 0.00 84 1022.0
20260507041232 12 188 0.0 0.0 0.00 0.00 0.00 85 1021.8
20260507040729 12 188 0.0 0.0 0.00 0.00 0.00 86 1022.0
20260507040225 12 188 0.0 0.0 0.00 0.00 0.00 85 1022.0
20260507035721 12 188 0.0 0.0 0.00 0.00 0.00 84 1022.0
20260507035217 12 188 0.0 0.0 0.00 0.00 0.00 84 1022.0
20260507034714 12 188 0.0 0.0 0.00 0.00 0.00 84 1021.9
20260507034211 12 188 0.0 0.0 0.00 0.00 0.00 84 1022.0
20260507033710 12 188 0.0 0.0 0.00 0.00 0.00 84 1021.8
20260507033207 12 188 0.0 0.0 0.00 0.00 0.00 83 1021.7
20260507032704 12 188 0.0 0.0 0.00 0.00 0.00 82 1021.8
20260507032200 12 188 0.0 0.0 0.00 0.00 0.00 83 1022.0
20260507031657 12 188 0.0 0.0 0.00 0.00 0.00 83 1021.8
20260507031153 12 188 0.0 0.0 0.00 0.00 0.00 81 1021.9
20260507030650 12 188 0.0 0.0 0.00 0.00 0.00 82 1021.7
20260507030148 12 188 0.0 0.0 0.00 0.00 0.00 82 1021.9
20260507025644 12 188 0.0 0.0 0.00 0.00 0.00 82 1021.6
20260507025142 12 188 0.0 0.0 0.00 0.00 0.00 82 1021.8
20260507024640 12 188 0.0 0.0 0.00 0.00 0.00 82 1021.8
20260507024137 12 188 0.0 0.0 0.00 0.00 0.00 81 1021.7
20260507023632 13 188 0.0 0.0 0.00 0.00 0.00 80 1021.7
20260507023130 13 192 0.0 0.0 0.00 0.00 0.00 80 1021.5
20260507022626 13 192 0.0 0.0 0.00 0.00 0.00 80 1021.6
20260507022122 13 192 0.0 0.0 0.00 0.00 0.00 79 1021.6
20260507021619 13 192 0.0 0.0 0.00 0.00 0.00 81 1021.5
20260507021114 13 192 0.0 0.0 0.00 0.00 0.00 80 1021.6
20260507020613 12 192 0.0 0.0 0.00 0.00 0.00 80 1021.8
20260507020109 12 192 0.0 0.0 0.00 0.00 0.00 80 1021.6
20260507015608 12 192 0.0 0.0 0.00 0.00 0.00 80 1021.4
20260507015104 12 192 0.0 0.0 0.00 0.00 0.00 81 1021.6
20260507014601 12 192 0.0 0.0 0.00 0.00 0.00 81 1021.4
20260507014057 12 192 0.0 0.0 0.00 0.00 0.00 80 1021.5
20260507013553 13 192 0.0 0.0 0.00 0.00 0.00 79 1021.5
20260507013051 13 192 0.0 0.0 0.00 0.00 0.00 80 1021.5
20260507012548 13 192 0.0 0.0 0.00 0.00 0.00 79 1021.5
20260507012044 13 192 0.0 1.6 0.00 0.00 0.00 78 1021.5
20260507011542 13 192 0.0 0.0 0.00 0.00 0.00 79 1021.7
20260507011038 13 189 1.6 1.6 0.00 0.00 0.00 77 1021.6
20260507010532 13 189 0.0 0.0 0.00 0.00 0.00 76 1021.6
20260507010029 13 189 0.0 0.0 0.00 0.00 0.00 76 1021.7
20260507005527 13 189 0.0 0.0 0.00 0.00 0.00 76 1021.5
20260507005023 13 189 0.0 0.0 0.00 0.00 0.00 76 1021.8
20260507004520 13 189 0.0 0.0 0.00 0.00 0.00 75 1021.8
20260507004017 13 189 0.0 0.0 0.00 0.00 0.00 76 1021.7
20260507003512 13 189 0.0 0.0 0.00 0.00 0.00 75 1021.7
20260507003008 13 189 0.0 0.0 0.00 0.00 0.00 76 1021.7
20260507002504 13 189 0.0 0.0 0.00 0.00 0.00 75 1021.6
20260507002001 13 189 0.0 0.0 0.00 0.00 0.00 75 1021.8
20260507001457 13 189 1.6 1.6 0.00 0.00 0.00 75 1021.8
20260507000955 13 192 1.6 3.2 0.00 0.00 0.00 75 1021.7
20260507000450 13 193 1.6 1.6 0.00 0.00 0.00 74 1021.7
20260506235946 13 196 3.2 3.2 0.00 0.00 0.00 74 1021.7
20260506235444 13 195 0.0 1.6 0.00 0.00 0.00 75 1021.7
20260506234939 13 195 0.0 0.0 0.00 0.00 0.00 76 1021.5
20260506234437 13 195 0.0 0.0 0.00 0.00 0.00 76 1021.8
20260506233934 13 197 1.6 1.6 0.00 0.00 0.00 74 1021.8
20260506233431 13 189 0.0 0.0 0.00 0.00 0.00 74 1021.6
20260506232927 13 189 0.0 0.0 0.00 0.00 0.00 73 1021.5
20260506232424 13 189 0.0 0.0 0.00 0.00 0.00 73 1021.9
20260506231919 13 187 1.6 1.6 0.00 0.00 0.00 73 1021.8
20260506231417 13 187 0.0 0.0 0.00 0.00 0.00 73 1021.7
20260506230915 13 183 0.0 0.0 0.00 0.00 0.00 73 1021.7
20260506230411 13 183 1.6 1.6 0.00 0.00 0.00 73 1021.6
20260506225907 13 206 0.0 0.0 0.00 0.00 0.00 72 1021.7
20260506225405 13 202 1.6 1.6 0.00 0.00 0.00 71 1021.8
20260506224901 13 209 0.0 0.0 0.00 0.00 0.00 72 1021.7
20260506224359 13 227 1.6 1.6 0.00 0.00 0.00 70 1021.7
20260506223855 13 181 0.0 0.0 0.00 0.00 0.00 72 1021.8
20260506223350 13 178 0.0 0.0 0.00 0.00 0.00 70 1021.7
20260506222848 13 225 1.6 1.6 0.00 0.00 0.00 70 1021.8
20260506222343 13 238 4.8 4.8 0.00 0.00 0.00 69 1021.8
20260506221841 13 205 1.6 3.2 0.00 0.00 0.00 69 1021.8
20260506221339 13 201 0.0 0.0 0.00 0.00 0.00 70 1021.6
20260506220836 13 192 1.6 1.6 0.00 0.00 0.00 68 1021.7
20260506220331 13 188 0.0 0.0 0.00 0.00 0.00 70 1021.9
20260506215828 13 209 0.0 0.0 0.00 0.00 0.00 69 1021.9
20260506215324 13 210 0.0 1.6 0.00 0.00 0.00 69 1022.1
20260506214820 13 210 0.0 0.0 0.00 0.00 0.00 69 1022.1
20260506214317 13 207 0.0 0.0 0.00 0.00 0.00 69 1021.9
20260506213815 14 210 1.6 1.6 0.00 0.00 0.00 69 1021.7
20260506213312 13 195 0.0 0.0 0.00 0.00 0.00 70 1021.9
20260506212810 13 192 0.0 0.0 0.00 0.00 0.00 69 1021.7
20260506212307 14 206 3.2 4.8 0.00 0.00 0.00 68 1021.7
20260506211800 14 211 0.0 0.0 0.00 0.00 0.00 68 1021.9
20260506211257 14 195 0.0 0.0 0.00 0.00 0.00 68 1021.9
20260506210754 15 195 3.2 3.2 0.00 0.00 0.00 68 1022.0
20260506210251 14 195 0.0 0.0 0.00 0.00 0.00 68 1021.6
20260506205748 14 219 0.0 0.0 0.00 0.00 0.00 69 1021.8
20260506205244 14 213 3.2 4.8 0.00 0.00 0.00 68 1021.8
20260506204741 14 186 0.0 0.0 0.00 0.00 0.00 69 1021.9
20260506204238 14 188 1.6 1.6 0.00 0.00 0.00 69 1021.8
20260506203736 14 206 1.6 1.6 0.00 0.00 0.00 67 1021.8
20260506203233 14 204 0.0 0.0 0.00 0.00 0.00 69 1021.7
20260506202730 14 211 0.0 0.0 0.00 0.00 0.00 70 1021.8
20260506202226 14 242 1.6 1.6 0.00 0.00 0.00 70 1021.6
20260506201724 14 210 1.6 1.6 0.00 0.00 0.00 71 1021.8
20260506201220 14 218 0.0 0.0 0.00 0.00 0.00 70 1021.8
20260506200717 14 187 1.6 1.6 0.00 0.00 0.00 71 1021.7
20260506200214 13 208 3.2 4.8 0.00 0.00 0.00 71 1021.7
20260506195710 13 188 0.0 0.0 0.00 0.00 0.00 73 1021.8
20260506195207 13 190 0.0 1.6 0.00 0.00 0.00 73 1021.8
20260506194704 13 223 0.0 1.6 0.00 0.00 0.00 72 1021.5
20260506194200 13 197 0.0 0.0 0.00 0.00 0.00 74 1021.5
20260506193658 13 197 0.0 0.0 0.00 0.00 0.00 74 1021.6
20260506193155 13 202 0.0 0.0 0.00 0.00 0.00 74 1021.6
20260506192651 13 216 1.6 1.6 0.00 0.00 0.00 74 1021.7
20260506192148 13 221 1.6 3.2 0.00 0.00 0.00 76 1021.5
20260506191645 13 188 3.2 3.2 0.00 0.00 0.00 75 1021.6
20260506191141 13 192 0.0 1.6 0.00 0.00 0.00 77 1021.4
20260506190639 12 210 0.0 1.6 0.00 0.00 0.00 76 1021.4
20260506190135 12 235 1.6 0.0 0.00 0.00 0.00 77 1021.6
20260506185632 12 204 0.0 1.6 0.00 0.00 0.00 78 1021.5
20260506185128 12 204 1.6 1.6 0.00 0.00 0.00 78 1021.4
20260506184626 12 169 0.0 0.0 0.00 0.00 0.00 78 1021.5
20260506184123 12 202 3.2 3.2 0.00 0.00 0.00 79 1021.7
20260506183620 12 204 1.6 3.2 0.00 0.00 0.00 80 1021.5
20260506183116 12 193 3.2 3.2 0.00 0.00 0.00 79 1021.5
20260506182614 12 213 3.2 4.8 0.00 0.00 0.00 81 1021.4
20260506182110 12 187 0.0 0.0 0.00 0.00 0.00 83 1021.2
20260506181608 12 189 1.6 3.2 0.00 0.00 0.00 81 1021.4
20260506181105 12 191 1.6 1.6 0.00 0.00 0.00 82 1021.3
20260506180602 12 212 3.2 3.2 0.00 0.00 0.00 82 1021.6
20260506180058 12 196 1.6 1.6 0.00 0.00 0.00 83 1021.6
20260506175554 12 231 1.6 1.6 0.00 0.00 0.00 84 1021.5
20260506175050 12 232 0.0 0.0 0.00 0.00 0.00 85 1021.1
20260506174550 12 241 4.8 6.4 0.00 0.00 0.00 86 1021.1
20260506174045 11 188 3.2 3.2 0.00 0.00 0.00 87 1021.0
20260506173543 11 201 1.6 1.6 0.00 0.00 0.00 89 1021.1
20260506173040 11 199 0.0 0.0 0.00 0.00 0.00 88 1021.0
20260506172537 11 185 3.2 4.8 0.00 0.00 0.00 87 1021.1
20260506172033 12 183 0.0 0.0 0.00 0.00 0.00 86 1021.2
20260506171531 12 183 1.6 1.6 0.00 0.00 0.00 85 1021.3
20260506171028 12 215 0.0 0.0 0.00 0.00 0.00 84 1021.3
20260506170526 12 191 0.0 0.0 0.00 0.00 0.00 85 1021.1
20260506170023 12 193 0.0 0.0 0.00 0.00 0.00 85 1021.2
20260506165522 12 195 1.6 1.6 0.00 0.00 0.00 85 1021.1
20260506165018 12 192 1.6 1.6 0.00 0.00 0.00 85 1021.2
20260506164514 12 191 0.0 0.0 0.00 0.00 0.00 86 1021.0
20260506051226 13 242 0.0 0.0 0.00 0.00 0.00 82 1016.9
20260506050724 13 242 0.0 0.0 0.00 0.00 0.00 81 1016.9
20260506050221 13 242 0.0 0.0 0.00 0.00 0.00 82 1016.8